Overview Statistics Trail Chart Weather Telemetry Raw packets
 

This is the latest recevied weather packets stored in our database for station/object VE8SKI. If no packets are shown the sender has not sent any weather packets the latest 10 day(s).

<< 43 44 45 46 47 48 49 >>
Time Temp. Humidity Pressure Rain* Wind** Luminosity Snow
1777813337 -3.89° C 90% 1014.9 hPa 0 mm 1.79 m/s, 48° - -
1777813037 -3.89° C 90% 1014.9 hPa 0 mm 3.13 m/s, 41° - -
1777812735 -3.89° C 90% 1014.9 hPa 0 mm 2.68 m/s, 80° - -
1777812435 -3.89° C 90% 1014.8 hPa 0 mm 1.79 m/s, 23° - -
1777812135 -3.89° C 90% 1014.9 hPa 0 mm 3.13 m/s, 52° - -
1777811835 -3.89° C 90% 1014.7 hPa 0 mm 1.34 m/s, 70° - -
1777811535 -3.89° C 91% 1014.7 hPa 0 mm 1.79 m/s, 94° - -
1777811236 -3.89° C 91% 1014.7 hPa 0 mm 2.68 m/s, 82° - -
1777810933 -3.89° C 91% 1014.6 hPa 0 mm 1.79 m/s, 62° - -
1777810633 -3.89° C 91% 1014.5 hPa 0 mm 2.24 m/s, 37° - -
1777810333 -3.33° C 91% 1014.4 hPa 0 mm 2.68 m/s, 53° - -
1777810033 -3.33° C 91% 1014.3 hPa 0 mm 2.24 m/s, 58° - -
1777809734 -3.33° C 91% 1014.3 hPa 0 mm 2.68 m/s, 80° - -
1777809434 -3.33° C 92% 1014.2 hPa 0 mm 2.68 m/s, 60° - -
1777809131 -3.33° C 92% 1014.1 hPa 0 mm 1.79 m/s, 41° - -
1777808831 -3.33° C 91% 1014 hPa 0 mm 2.24 m/s, 32° - -
1777808547 -3.33° C 92% 1013.9 hPa 0 mm 2.68 m/s, 84° - -
1777808232 -3.33° C 92% 1013.9 hPa 0 mm 1.79 m/s, 35° - -
1777807932 -3.33° C 92% 1013.8 hPa 0 mm 1.79 m/s, 48° - -
1777807632 -3.33° C 92% 1013.8 hPa 0 mm 1.79 m/s, 75° - -
1777807330 -3.33° C 91% 1013.7 hPa 0 mm 2.24 m/s, 13° - -
1777807030 -3.33° C 91% 1013.6 hPa 0 mm 2.68 m/s, 44° - -
1777806730 -2.78° C 91% 1013.5 hPa 0 mm 1.79 m/s, 51° - -
1777806430 -2.78° C 91% 1013.4 hPa 0 mm 2.24 m/s, 65° - -
1777806130 -2.78° C 91% 1013.3 hPa 0 mm 2.68 m/s, 55° - -

* Rain latest hour (hover to see other rain measurements)
** Current wind speed in m/s (hover to see current wind gust speed)